Location: Newark
(55.7816°N, 8.2389°E)
Time: 14:32:31
(UTC+00:00)

LilacSat-2 - Pass Details

Date: 27 February 2020
Orbit: 514 x 534 km, 97.5° (Epoch: 07 April)

Event Time Altitude Azimuth Distance (km) Brightness Sun altitude
Rises 17:28:52 0° 209° (SSW) 2,625 ? -5.4°
Reaches altitude 10° 17:31:35 10° 231° (SW) 1,744 ? -5.7°
Maximum altitude 17:34:01 16° 271° (W) 1,392 ? -6.1°
Drops below altitude 10° 17:36:29 10° 312° (NW) 1,755 ? -6.4°
Sets 17:39:14 0° 334° (NNW) 2,651 ? -6.8°
